EHI
22 15 6 1 0 0 0 0 0 0 0 0 0 0 0 0 0 0 0 0 0 0 0 0 0 0 0 0 0 0 0 0 0 0 0 0 0 0 0 0 0 0 0
33 24 10 2 0 0 0 0 0 0 0 0 0 0 0 0 0 0 0 0 0 0 0 0 0 0 0 0 0 0 0 0 0 0 0 0 0 0 0 0 0 0 0
49 34 16 6 2 0 0 0 0 0 0 0 0 0 0 0 0 0 0 0 0 0 0 0 0 0 0 0 0 0 0 0 0 0 0 0 0 0 0 0 0 0 0
51 34 19 12 5 1 0 0 0 0 0 0 0 0 0 0 0 0 0 0 0 0 0 0 0 0 0 0 0 0 0 0 0 0 0 0 0 0 0 0 0 0 0
46 36 33 31 18 7 1 0 0 0 0 0 0 0 0 0 0 0 0 0 0 0 0 0 0 0 0 1 0 0 0 0 0 0 0 0 0 0 0 0 0 0 0
51 54 63 63 48 28 13 3 0 0 0 0 0 0 0 0 0 0 0 0 0 0 0 0 0 0 0 0 0 0 0 0 0 0 0 0 0 0 0 0 0 0 0
65 75 85 85 75 60 40 19 7 3 1 0 0 0 0 0 0 0 0 0 0 0 0 0 0 0 0 0 0 0 0 0 0 0 0 0 0 0 0 0 0 0 0
76 81 87 86 83 78 65 44 25 15 8 2 0 0 0 0 0 0 0 0 0 0 0 0 0 0 0 0 0 0 0 0 0 0 0 0 0 0 0 0 0 0 0
55 59 64 66 68 70 67 53 38 27 15 4 0 0 0 0 0 0 0 0 0 0 0 0 0 0 0 0 0 0 0 0 0 0 0 0 0 0 0 0 0 0 0
18 20 25 30 36 41 41 35 27 21 12 3 0 0 0 0 0 0 0 0 0 0 0 0 0 0 0 0 0 0 0 0 0 0 0 0 0 0 0 0 0 0 0
0 1 3 6 9 11 12 11 8 6 3 1 0 0 0 0 0 0 0 0 0 0 0 0 0 0 0 0 0 0 0 0 0 0 0 0 0 0 0 0 0 0 0
0 0 0 0 0 0 0 0 0 0 0 0 0 0 0 0 0 0 0 0 0 0 0 0 0 0 0 0 0 0 0 0 0 0 0 0 0 0 0 0 0 0 0
0 0 0 0 0 0 0 0 0 0 0 0 0 0 0 0 0 0 0 0 0 0 0 0 0 0 0 0 0 0 0 0 0 0 0 0 0 0 0 0 0 0 0
0 0 0 0 0 0 0 0 0 0 0 0 0 0 0 0 0 0 0 0 0 0 0 0 0 0 0 0 0 0 0 0 0 0 0 0 0 0 0 0 0 0 0
0 0 0 0 0 0 0 0 0 0 0 0 0 0 0 0 0 0 0 0 0 0 0 0 0 0 0 0 0 0 0 0 0 0 0 0 0 0 0 0 0 0 0
0 0 0 0 0 0 0 0 0 0 0 0 0 0 0 0 0 0 0 0 0 0 0 0 0 0 0 0 0 0 0 0 0 0 0 0 0 0 0 0 0 0 0
0 0 0 0 0 0 0 0 0 0 0 0 0 0 0 0 0 0 0 0 0 0 0 0 0 0 0 0 0 0 0 0 0 0 0 0 0 0 0 0 0 0 0
0 0 0 0 0 0 0 0 0 0 0 0 0 0 0 0 0 0 0 0 0 0 0 0 0 0 0 0 0 0 0 0 0 0 0 0 0 0 0 0 0 0 0
0 0 0 0 0 0 0 0 0 0 0 0 0 0 0 0 0 0 0 0 0 0 0 0 0 0 0 0 0 0 0 0 0 0 0 0 0 0 0 0 0 0 0
0 0 0 0 0 0 0 0 0 0 0 0 0 0 0 0 0 0 0 0 0 0 0 0 0 0 0 0 0 0 0 0 0 0 0 0 0 0 0 0 0 0 0
0 0 0 0 0 0 0 0 0 0 0 0 0 0 0 0 0 0 0 0 0 0 0 0 0 0 0 0 0 0 0 0 0 0 0 0 0 0 0 0 0 0 0
0 0 0 0 0 0 0 0 0 0 0 0 0 0 0 0 0 0 0 0 0 0 0 0 0 0 0 0 0 0 0 0 0 0 0 0 0 0 0 0 0 0 0
0 0 0 0 0 0 0 0 0 0 0 0 0 0 0 0 0 0 0 0 0 0 0 0 0 0 0 0 0 0 0 0 0 0 0 0 0 0 0 0 0 0 0
0 0 0 0 0 0 0 0 0 0 0 0 0 0 0 0 0 0 0 0 0 0 0 0 0 0 0 0 0 0 0 0 0 0 0 0 0 0 0 0 0 0 0
0 0 0 0 0 0 0 0 0 0 0 0 0 0 0 0 0 0 0 0 0 0 0 0 0 0 0 0 0 0 0 0 0 0 0 0 0 0 0 0 0 0 0
0 0 0 0 0 0 0 0 0 0 0 0 0 0 0 0 0 0 0 0 0 0 0 0 0 0 0 0 0 0 0 0 0 0 0 0 0 0 0 0 0 0 0
Wind_Speed
9 7 6 5 5 5 5 5 6 5 6 7 8 8 8 9 8 6 7 9 6 4 1 3 7 10 8 8 9 9 8 8 8 4 5 6 9 8 8 5 5 5 6
9 8 7 6 6 6 6 6 7 7 6 6 5 6 6 7 8 8 7 8 6 4 2 6 9 7 8 8 8 10 9 9 8 7 6 6 9 10 9 7 5 3 4
9 8 8 8 7 6 6 6 7 8 7 7 7 8 8 8 9 9 8 8 8 8 8 5 9 11 9 9 10 9 9 8 7 8 7 6 7 9 10 8 7 5 4
9 9 8 8 7 7 7 7 8 8 8 7 8 8 9 9 9 9 9 9 11 12 11 10 9 12 11 10 9 10 10 9 9 8 8 8 7 7 9 9 8 7 6
10 10 8 7 7 8 8 9 9 8 8 8 7 7 8 7 8 10 11 12 13 12 13 12 10 13 9 7 8 9 8 8 8 8 7 7 7 7 10 10 9 8 8
10 9 8 7 7 8 9 10 10 9 10 8 8 8 7 6 6 5 5 6 8 10 10 9 8 9 9 8 11 12 9 9 9 9 7 9 12 11 10 10 8 7 7
8 8 8 8 9 10 11 11 11 11 10 10 11 10 10 7 7 8 8 7 8 9 10 10 10 7 7 9 12 12 12 12 12 11 11 13 12 10 12 12 11 11 7
5 4 6 7 8 10 11 12 12 11 11 11 12 12 10 7 7 7 7 11 10 10 10 10 8 9 10 10 9 8 10 10 11 12 12 9 5 6 11 12 12 10 6
4 1 2 5 7 9 10 11 11 11 11 11 10 9 9 8 9 8 8 10 10 10 9 10 9 9 6 6 9 8 8 7 4 4 2 2 5 7 9 9 9 9 8
7 6 5 3 2 5 8 9 8 10 9 8 7 7 7 9 8 9 10 9 8 6 6 6 5 4 4 6 7 6 6 4 4 4 4 5 6 9 11 12 11 10 8
7 6 6 6 5 3 2 3 3 5 5 5 5 6 7 8 6 6 6 8 6 5 4 5 5 5 5 5 5 5 2 0 2 4 4 5 6 6 8 10 8 7 8
5 5 6 6 4 3 2 1 3 4 5 5 5 5 4 4 2 3 4 7 4 4 5 5 6 7 5 5 3 1 2 2 2 3 4 4 4 4 5 6 6 6 8
5 5 4 4 3 3 2 4 5 5 4 3 4 4 3 2 2 2 4 7 5 3 5 7 9 8 7 6 3 3 4 4 2 2 3 3 3 4 4 4 7 8 8
5 5 4 5 4 5 3 2 4 3 3 2 1 2 3 3 3 5 7 8 7 6 10 9 8 6 5 5 5 6 5 4 4 5 4 4 3 4 4 5 6 7 8
4 4 4 4 4 5 4 3 3 5 5 3 3 2 1 2 2 4 6 8 9 8 8 8 7 6 6 5 3 2 2 3 4 5 4 4 4 4 4 5 4 4 5
2 4 3 2 4 4 3 4 7 8 8 7 7 6 3 2 4 3 2 2 8 8 6 4 4 3 3 3 3 3 4 4 4 4 4 4 4 5 5 4 5 6 7
2 2 1 1 2 2 3 2 2 3 5 8 9 9 7 4 1 6 7 7 5 2 3 3 2 2 2 2 2 4 4 4 4 4 4 5 5 5 6 6 6 7 7
2 1 0 0 2 1 1 1 1 2 2 4 7 7 8 8 9 12 10 7 3 2 1 1 1 1 2 3 4 4 4 3 4 4 5 4 5 6 6 6 6 7 7
2 1 0 2 1 2 2 1 2 4 3 2 4 4 6 7 7 4 2 3 4 3 2 2 2 2 3 3 3 3 4 4 5 4 5 5 5 5 5 5 6 9 9
2 2 1 1 2 1 1 1 4 3 3 3 4 4 4 2 1 0 1 1 1 3 3 2 2 3 3 4 4 5 5 5 5 5 5 5 5 6 6 6 6 7 7
3 4 3 1 1 1 1 2 5 2 1 4 5 6 4 1 2 1 2 1 1 1 1 1 1 2 4 6 6 5 5 5 5 5 5 5 5 5 6 5 5 6 5
4 5 4 3 2 1 1 1 4 4 2 4 4 3 1 2 3 1 2 1 1 2 2 2 2 1 2 4 5 4 4 5 5 5 5 5 5 5 5 5 4 4 4
5 4 4 4 3 3 2 2 3 3 4 5 3 3 2 2 2 2 3 2 1 0 2 2 3 2 2 3 3 4 5 4 4 4 4 4 4 5 5 4 5 5 4
5 5 4 3 4 3 3 3 5 3 3 3 4 4 3 2 2 3 3 2 2 3 2 2 4 4 4 3 3 3 4 4 4 5 5 4 4 4 4 4 4 5 4
6 5 4 3 4 4 4 4 5 4 3 3 4 3 4 4 3 3 3 3 4 4 4 4 4 5 6 7 7 7 7 6 4 3 3 3 3 2 2 2 3 3 3
7 6 5 3 3 4 4 4 4 4 4 4 4 3 4 3 2 3 4 5 4 5 5 5 6 7 8 7 9 10 9 8 3 2 2 2 2 2 2 3 4 4 5
Wind_Direction
189 185 190 212 223 216 222 199 195 189 182 194 212 204 199 188 180 161 154 148 153 134 77 275 241 232 222 217 216 223 230 236 243 181 130 156 177 175 149 181 152 205 144
187 181 193 202 212 218 211 202 191 193 197 210 210 203 200 176 171 166 163 154 160 159 226 265 263 235 229 224 219 221 224 225 222 221 158 178 190 183 173 181 186 201 197
179 185 193 198 209 219 218 201 194 196 201 210 194 198 210 192 181 182 185 170 178 199 214 241 275 261 225 228 227 225 226 231 213 225 169 175 198 182 181 196 193 197 213
181 191 201 204 205 212 209 207 206 203 208 211 208 201 210 210 203 195 192 209 203 207 203 209 227 262 250 236 238 233 222 225 221 219 180 174 188 187 191 200 204 206 211
189 198 200 209 207 213 203 203 209 211 213 218 221 209 211 205 205 205 198 216 218 211 207 202 196 225 255 279 276 259 235 227 223 222 202 181 181 185 199 203 209 199 214
198 206 196 203 205 218 214 208 211 212 224 220 234 228 219 207 175 221 228 221 243 240 232 223 213 220 231 237 247 259 266 249 228 222 216 208 201 203 200 200 202 195 205
231 205 197 205 208 213 219 218 215 213 215 213 218 228 236 222 170 205 223 239 242 249 248 230 204 198 226 234 226 231 246 242 240 239 232 232 231 204 187 196 203 205 209
239 222 210 220 220 212 218 221 216 208 202 206 212 212 222 222 177 205 219 244 244 245 248 248 232 214 207 221 233 231 234 225 227 236 247 251 252 185 189 203 204 203 200
70 33 244 225 221 214 215 222 220 214 206 206 213 214 215 219 181 197 215 243 244 245 241 233 223 224 202 208 240 242 248 241 215 232 260 103 151 182 204 200 200 194 197
42 43 43 30 302 250 234 226 220 218 217 215 210 210 219 232 188 196 217 237 236 231 228 219 203 230 167 202 241 255 264 260 232 194 171 179 189 204 215 207 199 201 208
28 35 43 39 26 3 308 265 218 218 207 202 195 200 203 223 202 196 215 237 218 201 197 201 186 186 183 203 250 282 304 310 194 222 196 183 190 203 209 233 238 218 223
29 31 37 40 25 24 62 105 148 147 138 140 155 177 197 219 228 172 195 241 262 209 177 182 158 169 185 192 219 147 142 159 176 196 210 184 177 193 200 219 256 279 272
33 33 33 55 57 57 96 123 121 116 123 146 171 170 178 196 187 211 205 211 216 226 122 111 128 151 165 173 178 173 193 176 175 209 223 216 188 194 202 226 224 227 233
35 30 28 42 25 73 84 108 109 98 123 154 174 186 192 194 194 192 181 174 167 151 129 126 123 132 132 130 163 187 200 186 194 206 206 208 210 201 195 194 214 218 214
43 45 44 46 58 74 87 47 37 57 27 24 36 14 6 219 212 252 214 180 181 172 153 155 163 173 166 168 185 198 214 197 202 214 215 206 209 218 212 203 200 192 209
39 53 39 31 78 87 92 78 43 40 49 44 43 29 19 348 313 259 240 120 133 146 160 175 181 197 210 186 192 207 214 220 226 216 226 221 220 223 219 204 206 204 214
48 66 76 346 54 106 152 178 139 96 69 55 48 41 26 1 146 147 121 118 130 203 213 191 183 178 211 227 227 241 234 211 227 237 243 247 249 241 234 223 213 217 225
105 81 285 13 309 291 256 266 345 48 81 71 53 40 35 48 78 98 113 120 105 64 83 124 145 186 213 219 210 224 257 266 258 261 255 248 251 251 242 233 222 224 227
183 148 126 82 327 287 257 280 62 77 87 126 120 81 53 58 75 95 128 134 141 155 173 204 215 232 248 257 257 244 240 237 244 255 266 271 263 258 249 240 240 234 230
162 114 265 185 176 180 223 82 88 105 137 129 107 117 126 138 144 77 68 100 182 178 178 206 231 246 256 251 246 247 250 246 245 247 253 262 268 264 258 247 247 251 242
175 158 197 217 108 40 8 83 111 128 111 92 87 71 39 101 114 59 55 55 347 298 252 240 292 282 277 271 264 262 262 260 259 256 254 251 251 258 265 269 272 264 249
188 178 182 188 161 140 60 118 125 130 135 101 90 96 354 51 74 93 90 52 355 289 315 317 284 246 252 287 299 293 286 280 272 267 263 256 248 248 253 252 248 248 226
176 175 188 179 169 142 145 135 109 100 109 112 127 117 91 87 82 72 87 103 228 8 19 325 318 341 339 311 292 272 264 267 279 276 260 253 240 234 240 250 262 256 235
156 152 191 185 161 160 141 118 96 95 110 130 129 119 123 115 99 77 61 39 41 23 17 6 351 350 352 346 312 293 281 271 263 268 272 265 258 240 234 238 242 254 260
152 153 161 154 153 151 139 122 117 131 128 101 84 85 90 82 73 67 48 9 28 24 28 35 21 13 18 21 4 349 337 313 274 268 276 274 274 263 236 234 222 222 224
156 149 146 171 164 148 141 149 148 146 133 116 107 95 99 95 81 64 44 39 32 37 39 36 28 25 15 4 352 342 345 342 319 270 278 293 299 288 259 246 234 223 219